When you browse on this site, cookies collect data to enhance your experience and personalize the content and advertising you see.
Visit our Privacy Policy to learn more. By continuing to use the site, you agree to this use of cookies and data.
  • In Czech Republic
  • List of Countries
  • For 7 days
  • Water Temperature
  • Satellite Maps
  • Weather Map
  • Weather Widgets
  • user-avatar
    Login

    Hourly Weather Sent-Eli

    Today, 17 December, Monday

    Time Temperature Precipitation Wind Pressure Humidity
    00:00 +25°C° 0.3 mm 5 mps 757 mmHg 94%
    01:00 +25°C° 0.3 mm 5 mps 756 mmHg 95%
    02:00 +25°C° 0.3 mm 5 mps 756 mmHg 95%
    03:00 +25°C° 0.5 mm 5 mps 756 mmHg 95%
    04:00 +25°C° 0.5 mm 4 mps 756 mmHg 95%
    05:00 +25°C° 0.5 mm 4 mps 756 mmHg 95%
    06:00 +26°C° 0.8 mm 4 mps 756 mmHg 93%
    07:00 +26°C° 0.8 mm 4 mps 757 mmHg 91%
    08:00 +27°C° 0.8 mm 4 mps 757 mmHg 89%
    09:00 +28°C° 0.9 mm 4 mps 757 mmHg 88%
    10:00 +28°C° 0.9 mm 4 mps 757 mmHg 86%
    11:00 +29°C° 0.9 mm 4 mps 757 mmHg 85%
    12:00 +28°C° 0.9 mm 4 mps 757 mmHg 85%
    13:00 +28°C° 0.9 mm 4 mps 756 mmHg 86%
    14:00 +28°C° 0.9 mm 4 mps 756 mmHg 86%
    15:00 +28°C° 0.4 mm 5 mps 756 mmHg 87%
    16:00 +27°C° 0.4 mm 5 mps 756 mmHg 89%
    17:00 +27°C° 0.4 mm 5 mps 755 mmHg 90%
    18:00 +27°C° 0.1 mm 5 mps 756 mmHg 91%
    19:00 +26°C° 0.1 mm 5 mps 756 mmHg 91%
    20:00 +26°C° 0.1 mm 5 mps 756 mmHg 92%
    21:00 +26°C° 0.3 mm 5 mps 757 mmHg 93%
    22:00 +26°C° 0.3 mm 5 mps 757 mmHg 94%
    23:00 +26°C° 0.3 mm 5 mps 757 mmHg 95%

    Tomorrow, 18 December, Tuesday

    Time Temperature Precipitation Wind Pressure Humidity
    00:00 +25°C° 0.3 mm 5 mps 756 mmHg 95%
    01:00 +25°C° 0.3 mm 5 mps 756 mmHg 95%
    02:00 +25°C° 0.3 mm 5 mps 756 mmHg 95%
    03:00 +25°C° 0.3 mm 5 mps 756 mmHg 95%
    04:00 +25°C° 0.3 mm 5 mps 756 mmHg 96%
    05:00 +25°C° 0.3 mm 5 mps 756 mmHg 96%
    06:00 +26°C° 0.4 mm 5 mps 756 mmHg 95%
    07:00 +26°C° 0.4 mm 5 mps 757 mmHg 93%
    08:00 +27°C° 0.4 mm 5 mps 757 mmHg 92%
    09:00 +28°C° 0.5 mm 5 mps 757 mmHg 90%
    10:00 +28°C° 0.5 mm 5 mps 757 mmHg 88%
    11:00 +29°C° 0.5 mm 5 mps 757 mmHg 87%
    12:00 +29°C° 0.6 mm 5 mps 756 mmHg 87%
    13:00 +28°C° 0.6 mm 5 mps 756 mmHg 88%
    14:00 +28°C° 0.6 mm 5 mps 755 mmHg 88%
    15:00 +28°C° 0.2 mm 5 mps 755 mmHg 89%
    16:00 +27°C° 0.2 mm 5 mps 755 mmHg 90%
    17:00 +27°C° 0.2 mm 5 mps 755 mmHg 90%
    18:00 +27°C° 0.4 mm 5 mps 755 mmHg 92%
    19:00 +26°C° 0.4 mm 5 mps 756 mmHg 93%
    20:00 +26°C° 0.4 mm 6 mps 756 mmHg 94%
    21:00 +26°C° 0.7 mm 5 mps 756 mmHg 95%
    22:00 +25°C° 0.7 mm 5 mps 757 mmHg 95%
    23:00 +25°C° 0.7 mm 5 mps 757 mmHg 96%

    Day after tomorrow, 19 December, Wednesday

    Time Temperature Precipitation Wind Pressure Humidity
    00:00 +25°C° 0.9 mm 5 mps 756 mmHg 96%
    01:00 +25°C° 0.9 mm 5 mps 756 mmHg 96%
    02:00 +25°C° 0.9 mm 5 mps 755 mmHg 96%
    03:00 +25°C° 1.3 mm 5 mps 755 mmHg 96%
    04:00 +25°C° 1.3 mm 5 mps 755 mmHg 96%
    05:00 +25°C° 1.3 mm 5 mps 755 mmHg 96%
    06:00 +26°C° 0.3 mm 5 mps 756 mmHg 94%
    07:00 +27°C° 0.3 mm 5 mps 757 mmHg 93%
    08:00 +28°C° 0.3 mm 5 mps 757 mmHg 91%
    09:00 +28°C° 0.4 mm 5 mps 757 mmHg 89%
    10:00 +28°C° 0.4 mm 5 mps 757 mmHg 86%
    11:00 +29°C° 0.4 mm 5 mps 757 mmHg 84%
    12:00 +29°C° 0.4 mm 5 mps 756 mmHg 84%
    13:00 +29°C° 0.4 mm 5 mps 755 mmHg 84%
    14:00 +29°C° 0.4 mm 6 mps 754 mmHg 83%
    15:00 +28°C° 0.3 mm 6 mps 754 mmHg 86%
    16:00 +27°C° 0.3 mm 6 mps 754 mmHg 89%
    17:00 +27°C° 0.3 mm 6 mps 754 mmHg 91%
    18:00 +26°C° 0.4 mm 6 mps 755 mmHg 92%
    19:00 +26°C° 0.4 mm 6 mps 755 mmHg 92%
    20:00 +26°C° 0.4 mm 6 mps 756 mmHg 93%
    21:00 +26°C° 0.6 mm 6 mps 756 mmHg 93%
    22:00 +24°C° 0.6 mm 6 mps 756 mmHg 94%
    23:00 +24°C° 0.6 mm 6 mps 756 mmHg 95%

    20 December, Thursday

    Time Temperature Precipitation Wind Pressure Humidity
    00:00 +24°C° 0.8 mm 6 mps 755 mmHg 95%
    01:00 +24°C° 0.8 mm 6 mps 755 mmHg 95%
    02:00 +24°C° 0.8 mm 6 mps 754 mmHg 95%
    03:00 +24°C° 0.6 mm 6 mps 754 mmHg 95%
    04:00 +24°C° 0.6 mm 6 mps 754 mmHg 95%
    05:00 +24°C° 0.6 mm 6 mps 755 mmHg 95%
    06:00 +26°C° 0.4 mm 6 mps 755 mmHg 93%
    07:00 +27°C° 0.4 mm 6 mps 756 mmHg 91%
    08:00 +27°C° 0.4 mm 6 mps 757 mmHg 89%
    09:00 +28°C° 0.4 mm 6 mps 756 mmHg 88%
    10:00 +28°C° 0.4 mm 6 mps 756 mmHg 87%
    11:00 +28°C° 0.4 mm 6 mps 756 mmHg 86%
    12:00 +29°C° 0.2 mm 6 mps 756 mmHg 82%
    13:00 +29°C° 0.2 mm 6 mps 755 mmHg 77%
    14:00 +30°C° 0.2 mm 6 mps 754 mmHg 73%
    15:00 +29°C° 0 mm 6 mps 754 mmHg 76%
    16:00 +28°C° 0 mm 6 mps 754 mmHg 79%
    17:00 +27°C° 0 mm 6 mps 754 mmHg 81%
    18:00 +27°C° 0.1 mm 6 mps 754 mmHg 84%
    19:00 +26°C° 0.1 mm 6 mps 755 mmHg 86%
    20:00 +26°C° 0.1 mm 6 mps 755 mmHg 88%
    21:00 +26°C° 0.1 mm 6 mps 755 mmHg 88%
    22:00 +26°C° 0.1 mm 6 mps 755 mmHg 88%
    23:00 +26°C° 0.1 mm 6 mps 755 mmHg 88%

    21 December, Friday

    Time Temperature Precipitation Wind Pressure Humidity
    00:00 +26°C° 0.1 mm 6 mps 755 mmHg 88%
    01:00 +26°C° 0.1 mm 6 mps 754 mmHg 88%
    02:00 +26°C° 0.1 mm 6 mps 754 mmHg 88%
    03:00 +24°C° 0.1 mm 6 mps 754 mmHg 89%
    04:00 +24°C° 0.1 mm 6 mps 754 mmHg 89%
    05:00 +24°C° 0.1 mm 6 mps 754 mmHg 90%
    06:00 +26°C° 0.1 mm 6 mps 755 mmHg 86%
    07:00 +27°C° 0.1 mm 6 mps 755 mmHg 82%
    08:00 +28°C° 0.1 mm 6 mps 756 mmHg 79%
    09:00 +29°C° 0.1 mm 6 mps 756 mmHg 74%
    10:00 +30°C° 0.1 mm 5 mps 756 mmHg 69%
    11:00 +32°C° 0.1 mm 5 mps 756 mmHg 64%
    12:00 +30°C° 0.1 mm 5 mps 755 mmHg 65%
    13:00 +30°C° 0.1 mm 5 mps 755 mmHg 65%
    14:00 +30°C° 0.1 mm 5 mps 754 mmHg 65%
    15:00 +29°C° 0 mm 5 mps 754 mmHg 70%
    16:00 +28°C° 0 mm 5 mps 754 mmHg 75%
    17:00 +27°C° 0 mm 5 mps 754 mmHg 80%
    18:00 +27°C° 0 mm 5 mps 754 mmHg 82%
    19:00 +26°C° 0 mm 5 mps 755 mmHg 84%
    20:00 +26°C° 0 mm 5 mps 755 mmHg 86%
    21:00 +26°C° 0 mm 5 mps 755 mmHg 87%
    22:00 +26°C° 0 mm 5 mps 755 mmHg 87%
    23:00 +26°C° 0 mm 5 mps 755 mmHg 87%

    22 December, Saturday

    Time Temperature Precipitation Wind Pressure Humidity
    00:00 +26°C° 0 mm 5 mps 755 mmHg 88%
    01:00 +25°C° 0 mm 5 mps 754 mmHg 88%
    02:00 +25°C° 0 mm 5 mps 754 mmHg 89%
    03:00 +25°C° 0.1 mm 5 mps 754 mmHg 90%
    04:00 +25°C° 0.1 mm 5 mps 754 mmHg 90%
    05:00 +25°C° 0.1 mm 5 mps 754 mmHg 91%
    06:00 +26°C° 0.2 mm 5 mps 755 mmHg 88%
    07:00 +27°C° 0.2 mm 5 mps 755 mmHg 84%
    08:00 +28°C° 0.2 mm 5 mps 756 mmHg 81%
    09:00 +28°C° 0.5 mm 5 mps 756 mmHg 83%
    10:00 +28°C° 0.5 mm 5 mps 756 mmHg 85%
    11:00 +28°C° 0.5 mm 5 mps 755 mmHg 86%
    12:00 +28°C° 0.5 mm 5 mps 755 mmHg 87%
    13:00 +28°C° 0.5 mm 5 mps 754 mmHg 87%
    14:00 +28°C° 0.5 mm 5 mps 754 mmHg 88%
    15:00 +27°C° 0.5 mm 5 mps 754 mmHg 90%
    16:00 +27°C° 0.5 mm 5 mps 754 mmHg 91%
    17:00 +26°C° 0.5 mm 5 mps 754 mmHg 93%
    18:00 +26°C° 0.4 mm 5 mps 754 mmHg 94%
    19:00 +26°C° 0.4 mm 5 mps 755 mmHg 94%
    20:00 +25°C° 0.4 mm 5 mps 755 mmHg 95%
    21:00 +25°C° 0.9 mm 5 mps 755 mmHg 95%
    22:00 +25°C° 0.9 mm 5 mps 755 mmHg 95%
    23:00 +25°C° 0.9 mm 5 mps 755 mmHg 96%
    Show more